Time,TemperatureF,DewpointF,PressureIn,WindDirection,WindDirectionDegrees,WindSpeedMPH,WindSpeedGustMPH,Humidity,HourlyPrecipIn,Conditions,Clouds,dailyrainin,SoftwareType,DateUTC
2013-10-05 00:24:00,70.0,64.0,30.03,South,180,0.0,0.0,82,0.00,,,0.00,,2013-10-05 04:24:00,
2013-10-05 00:54:00,69.0,64.0,30.03,South,180,0.0,0.0,83,0.00,,,0.00,,2013-10-05 04:54:00,
2013-10-05 01:22:00,69.0,64.0,30.04,South,180,0.0,0.0,84,0.00,,,0.00,,2013-10-05 05:22:00,
2013-10-05 01:52:00,69.0,64.0,30.03,South,180,0.0,0.0,84,0.00,,,0.00,,2013-10-05 05:52:00,
2013-10-05 02:22:00,68.0,63.0,30.04,South,180,0.0,0.0,84,0.00,,,0.00,,2013-10-05 06:22:00,
2013-10-05 02:52:00,68.0,63.0,30.03,South,180,0.0,0.0,84,0.00,,,0.00,,2013-10-05 06:52:00,
2013-10-05 03:22:00,67.0,62.0,30.03,South,180,0.0,0.0,85,0.00,,,0.00,,2013-10-05 07:22:00,
2013-10-05 03:52:00,67.0,63.0,30.03,South,180,0.0,0.0,86,0.00,,,0.00,,2013-10-05 07:52:00,
2013-10-05 04:23:00,67.0,63.0,30.02,South,180,0.0,0.0,87,0.00,,,0.00,,2013-10-05 08:23:00,
2013-10-05 04:52:00,67.0,63.0,30.02,South,180,0.0,0.0,86,0.00,,,0.00,,2013-10-05 08:52:00,
2013-10-05 05:22:00,66.0,62.0,30.02,South,180,0.0,0.0,87,0.00,,,0.00,,2013-10-05 09:22:00,
2013-10-05 05:54:00,66.0,62.0,30.01,South,180,0.0,0.0,88,0.00,,,0.00,,2013-10-05 09:54:00,
2013-10-05 06:23:00,67.0,63.0,30.01,SW,225,0.0,0.0,88,0.00,,,0.00,,2013-10-05 10:23:00,
2013-10-05 06:54:00,67.0,64.0,30.02,SW,225,0.0,0.0,89,0.00,,,0.00,,2013-10-05 10:54:00,
2013-10-05 07:22:00,68.0,65.0,30.01,SW,225,0.0,0.0,89,0.00,,,0.00,,2013-10-05 11:22:00,
2013-10-05 07:52:00,68.0,65.0,30.01,SW,225,0.0,0.0,89,0.00,,,0.00,,2013-10-05 11:52:00,
2013-10-05 08:22:00,68.0,65.0,30.00,SW,225,0.0,0.0,89,0.00,,,0.00,,2013-10-05 12:22:00,
2013-10-05 08:52:00,68.0,65.0,30.01,SW,225,0.0,0.0,89,0.00,,,0.00,,2013-10-05 12:52:00,
2013-10-05 09:22:00,68.0,65.0,30.02,South,180,0.0,0.0,89,0.00,,,0.00,,2013-10-05 13:22:00,
2013-10-05 09:42:00,68.0,65.0,30.02,South,180,0.0,0.0,89,0.00,,,0.00,,2013-10-05 13:42:00,
2013-10-05 09:52:00,68.0,65.0,30.02,South,180,0.0,0.0,89,0.00,,,0.00,,2013-10-05 13:52:00,
2013-10-05 10:22:00,68.0,65.0,30.02,South,180,0.0,0.0,89,0.00,,,0.00,,2013-10-05 14:22:00,
2013-10-05 10:52:00,68.0,65.0,30.02,SSE,157,0.0,0.0,90,0.00,,,0.00,,2013-10-05 14:52:00,
2013-10-05 11:22:00,70.0,67.0,30.02,SE,135,0.0,0.0,91,0.00,,,0.00,,2013-10-05 15:22:00,
2013-10-05 11:53:00,69.0,66.0,30.02,SSE,157,0.0,0.0,90,0.00,,,0.00,,2013-10-05 15:53:00,
2013-10-05 12:24:00,67.0,64.0,30.00,SSE,157,0.0,0.0,89,0.00,,,0.00,,2013-10-05 16:24:00,
2013-10-05 12:43:00,67.0,63.0,30.00,SSW,202,0.0,0.0,88,0.00,,,0.00,,2013-10-05 16:43:00,
2013-10-05 12:53:00,68.0,64.0,29.99,SSE,157,0.0,0.0,88,0.00,,,0.00,,2013-10-05 16:53:00,
2013-10-05 15:22:00,68.0,64.0,29.94,ESE,112,0.0,0.0,87,0.00,,,0.00,,2013-10-05 19:22:00,
2013-10-05 15:52:00,71.0,65.0,29.93,ESE,112,0.0,0.0,80,0.00,,,0.00,,2013-10-05 19:52:00,
2013-10-05 16:22:00,74.0,66.0,29.93,NW,315,0.0,0.0,76,0.00,,,0.00,,2013-10-05 20:22:00,
2013-10-05 16:52:00,75.0,66.0,29.94,SSW,202,0.0,0.0,73,0.00,,,0.00,,2013-10-05 20:52:00,
2013-10-05 17:22:00,76.0,67.0,29.93,ENE,67,0.0,0.0,74,0.00,,,0.00,,2013-10-05 21:22:00,
2013-10-05 17:54:00,76.0,68.0,29.93,ESE,112,0.0,0.0,76,0.00,,,0.00,,2013-10-05 21:54:00,
2013-10-05 18:24:00,75.0,67.0,29.94,South,180,0.0,0.0,77,0.00,,,0.00,,2013-10-05 22:24:00,
2013-10-05 18:53:00,72.0,66.0,29.94,WSW,247,0.0,0.0,81,0.00,,,0.00,,2013-10-05 22:53:00,
2013-10-05 19:22:00,69.0,64.0,29.95,WSW,247,0.0,0.0,84,0.00,,,0.00,,2013-10-05 23:22:00,
2013-10-05 19:53:00,65.0,61.0,29.91,SSE,157,0.0,0.0,87,0.00,,,0.00,,2013-10-05 23:53:00,
2013-10-05 20:12:00,65.0,61.0,29.92,SE,135,0.0,0.0,88,0.00,,,0.00,,2013-10-06 00:12:00,
2013-10-05 20:23:00,65.0,61.0,29.92,SSE,157,0.0,0.0,88,0.00,,,0.00,,2013-10-06 00:23:00,
2013-10-05 20:52:00,65.0,62.0,29.91,ESE,112,0.0,0.0,90,0.00,,,0.00,,2013-10-06 00:52:00,
2013-10-05 21:22:00,66.0,63.0,29.89,SE,135,0.0,0.0,90,0.00,,,0.00,,2013-10-06 01:22:00,
2013-10-05 21:52:00,68.0,66.0,29.90,South,180,0.0,0.0,92,0.00,,,0.00,,2013-10-06 01:52:00,
2013-10-05 22:22:00,68.0,66.0,29.91,SE,135,0.0,0.0,92,0.00,,,0.00,,2013-10-06 02:22:00,
2013-10-05 22:42:00,68.0,66.0,29.90,SW,225,0.0,0.0,92,0.00,,,0.00,,2013-10-06 02:42:00,
2013-10-05 22:52:00,68.0,66.0,29.89,WNW,292,0.0,0.0,92,0.00,,,0.00,,2013-10-06 02:52:00,
2013-10-05 23:22:00,68.0,66.0,29.91,WSW,247,0.0,0.0,92,0.00,,,0.00,,2013-10-06 03:22:00,
2013-10-05 23:44:00,68.0,66.0,29.91,WSW,247,0.0,0.0,92,0.00,,,0.00,,2013-10-06 03:44:00,
2013-10-05 23:54:00,68.0,65.0,29.91,South,180,0.0,0.0,91,0.00,,,0.00,,2013-10-06 03:54:00,